Tracking 19730 objects as of 27-Jun-2019
HD Live streaming from Space Station
objects crossing your sky now

DELTA 1 DEB

Track DELTA 1 DEB now!
10-day predictions


NORAD ID: 12234
Int'l Code: 1978-026CB
Perigee: 870.2 km
Apogee: 910.8 km
Inclination: 99.0 °
Period: 102.6 minutes
Semi major axis: 7261 km
RCS: 0.0288 m2 (small)
Launch date: March 5, 1978
Source: United States (US)
Launch site: AIR FORCE WESTERN TEST RANGE (AFWTR)

Note: This is SATELLITE DEBRIS
aabbcc
Your satellite tracking list
Your tracking list is empty




NASA's NSSDC Master Catalog

Two Line Element Set (TLE):
1 12234U 78026CB  19177.82725456 +.00000299 +00000-0 +22017-3 0  9994
2 12234 098.9969 139.7820 0027897 306.9396 070.0211 14.03018639964659
Source of the keplerian elements: AFSPC